Member area
Imprimable
Stambruges, 29/08/2015, BEL - Trolls X'trem Run 4
List of reports > Troll XTreme Run - Result
Search: Page: [1]
460 Entries
 
Complains are not accepted anymore. Results are final.
PlaceNrNameAgeNATTeamTimeTkmMoy.ScrCity
1.2SMET John39BELTROLLS X'TREM RUN1:19:174:39 12.942
2.3PASQUE Fabrice39BELTROLLS X'TREM RUN1:23:504:55 12.243
3.254DELSIPÉ Nicolas35BEL1:25:004:59 12.074ASSESSE
4.79DEVENYNS Stephane36BEL1:33:095:27 11.0222MAINVAULT
5.20HALATYN Nicolas36FRA1:35:165:35 10.7732HEM
6.194KOLENDA Stan37BELTROLLS X'TREM RUN1:36:055:38 10.6835
7.378COULON Olivier35BELMECA TROLLS1:36:095:38 10.6738VEDRIN
8.28VANDENBERGHE Erwin39BEL1:37:125:42 10.5641PERUWELZ
9.255VAN DYCK Laurent35BEL1:40:135:52 10.2460BOIS DE VILLERS
10.863VERHEYEN Cédric37BEL1:41:205:56 10.1365BERSELL
11.1234LIEUTENANT Frederic36BEL1:42:045:59 10.0568AWANS
12.1125COSTANZO Luigi39BEL1:44:106:06 9.8580QUEVAUCAMPS
13.33ALAMARTINE Arnaud37FRA1:44:396:08 9.8082LAMBERSART
14.1462DAWANT Sébastien35BEL1:45:586:12 9.6890ANTHISNES
15.1581COLARD Cyrille36FRA1:46:086:13 9.6792BRUXELLES
16.17LIENARD Gilles39BEL1:46:186:13 9.6594MONT SAINTE GENEVIÈVE
17.223PROCUREUR Vincent38BEL1:46:496:15 9.6199WASMES-A-B
18.438VERMEULEN Damien36BELTROLLS X'TREM RUN1:46:586:16 9.59101
19.739GUZENDA Eddy37BELTROLLS X'TREM RUN1:48:086:20 9.49111
20.119GODEAU Jean-François35BELRJC MONS1:48:326:21 9.45120HYON
21.1063MALIGO Rodrigue38BEL1:49:106:23 9.40128TAINTIGNIES
22.1111COUPEZ Luc39BEL1:49:276:24 9.38130LA LONGUEVILLE
23.150STORTONI Joris36BELTROLLS X'TREM RUN1:49:586:26 9.33135
24.467DEWEZ Michael35BEL1:50:346:28 9.28140OPHAIN
25.43PADULA Oliviero38BELPASTA COSI1:51:096:30 9.23144FRAMERIES
26.1458WERY Michael36BEL1:52:206:35 9.13152ROUX
27.719SADAUNE Jean-François36BELTROLLS X'TREM RUN1:52:486:36 9.10157
28.487HUPEZ Lionel35BELMENNE TEAM1:53:506:40 9.01167GENLY
29.497PARISIS Gauthier35BELMENNE TEAM1:53:526:40 9.01168SAINT SYMPHORIEN
30.483DONCQ Baptiste37BELMENNE TEAM1:54:016:41 9.00171SARS LA BRUYÈRE
31.3413CAPETTE Valery36BELLES CATAS'TROLLS1:54:036:41 9.00172VAUDIGNIES
32.3410BOSQUET Sebastien35BELLES CATAS'TROLLS1:54:036:41 9.00173QUAREGNON
33.1000HENNEBERT Bertrand35BELTROLLS X'TREM RUN1:54:126:41 8.98176
34.242FLAMENG Laurent37BEL1:54:396:43 8.95183ISIERES
35.1397CAUCHETEUX Stefan37BEL1:55:266:45 8.89191GHLIN
36.653ROBINSON Kevin37BEL1:55:456:47 8.86198BRUXELLES
37.354JOURET Julien35BELACHROCHEURS1:56:136:48 8.83208BUISSENAL
38.307HANOTEAU Aymeric38BELTROLLS X'TREM RUN1:57:366:53 8.73221
39.56CONDOTTA Frederic39BEL1:57:416:53 8.72224HAVRÉ
40.994DEBAERE Michael39BELTROLLS X'TREM RUN1:59:387:00 8.58240
41.933FILIPOWSKI Cedric36BELLES KAMIKAZ'COOLS2:00:267:03 8.52245MAUBRAY
42.1200THIEBAUT Matthieu36BEL2:01:227:06 8.45257HORNU
43.2601WILLEMS Pierre36BEL2:01:237:06 8.45258VISE
44.750WACQUIER Arnaud37BELTROLLS X'TREM RUN2:01:297:07 8.45261
45.110SPINETTE Jonathan38BELRJC MONS2:01:427:07 8.43265HYON
46.383REGNIER Pierre39BELMECA TROLLS2:01:497:08 8.42270LIEGE
47.402ALAIMO David35BEL2:02:097:09 8.40272HOUDENG-AIMERIES
48.353BRAQUENIER Benoît37BELACHROCHEURS2:02:577:12 8.35281FONTENOY
49.36DRUART Olivier35BEL2:03:207:13 8.32287HACQUENIES
50.1229DEBATTICE Jean-Philippe36BEL2:03:527:15 8.28295HERMALLE S/ARG
51.280BAILLY Pierre39BEL2:04:227:17 8.25300GRÂCE-HOLLOGNE
52.109BETTE Sébastien38BELRJC MONS2:05:117:20 8.20312HYON
53.1189FOURNEAUX Thomas36BEL2:05:127:20 8.20313LEUZE-EN-HAINAUT
54.107MATTHIEU Quentin37BELRJC MONS2:05:227:20 8.19315HYON
55.2250BIRON Marcel39BELLES DRAGONS2:05:337:21 8.17316JAMIOULX
56.80LEFEBVRE Geoffrey36BEL2:05:427:22 8.16318GINGELOM
57.1887JEANNE Matthieu35FRA2:06:327:24 8.11327CREPY EN VALOIS
58.461DEWEERDT Gaëtan37BELTROLLS X'TREM RUN2:07:107:27 8.07333
59.1575DOUILLIEZ Xavier35BEL2:08:027:30 8.01338MONS
60.1589TACCOGNA Mario37BEL2:08:027:30 8.01340BLAREGNIES
61.1237LABIE Christophe37BEL2:08:147:30 8.00344GRANDMETZ
62.2772DEMAIRE Laurent35BELLES FOUS DU STADE - RETUR2:08:267:31 7.99349QUEVAUCAMPS
63.494MENNE Vincent36BELMENNE TEAM2:10:367:39 7.86375ATH
64.495NAERT-DIEU Geoffrey39BELMENNE TEAM2:10:377:39 7.86377SIRAULT
65.1076RIGAUD Anthony36FRA2:10:517:40 7.84380EMMERIN
66.3411HEURION Denis37BELLES CATAS'TROLLS2:11:187:41 7.81386PIETON
67.582AMAND Benjamin37BEL2:11:307:42 7.80389JEMAPPES
68.1110PIERROT Sébastien39BEL2:11:397:42 7.79392BLAREGNIES
69.1112VANTYGHEM Eddy39BEL2:11:397:42 7.79393MASNUY ST JEAN
70.702LABOUREUR Yves37BEL2:11:587:44 7.78399MONS
71.1986LAMONT Michael39BELLA BANDE DES CINÉS2:12:037:44 7.77401BRAKEL
72.1120DEHUT Sebastien35BEL2:12:357:46 7.74407VIEUX RENG
73.881DESSILY Didier35BEL2:12:477:46 7.73409COLFONTAINE
74.1233MESSORI Christophe36BEL2:13:307:49 7.69413POMMEROEUL
75.999HEBRANT Lionel36BELTROLLS X'TREM RUN2:13:307:49 7.69414
76.1674WAUTOT Nicolas37BEL2:13:457:50 7.67417POULSEUR
77.256DEGOUYS Yann36BEL2:13:577:50 7.66419HAUTRAGE
78.3608DI MAGGIO Frederic39ITATROLLS X'TREM RUN2:14:397:53 7.62429VELAINE SUR SAMBRE
79.1651DELVALLEE Christophe38BEL2:14:517:54 7.61437AUDREGNIES
80.66PIPART Greg36BELTROLLS X'TREM RUN2:14:587:54 7.60439VALENCIENNES
81.251VANDERLINDEN Laurent38BEL2:15:307:56 7.57443WÉPION
82.660GOBERT Christophe39BEL2:15:427:57 7.56451CHÂTELET
83.259BLEUSE Philippe39BEL2:18:278:06 7.41496MONS
84.266BRUDNIAK Yohan36BEL2:18:308:06 7.41497VILLERS SIRE NICOLE
85.2018PIRON Frederic37BEL2:19:008:08 7.38499RANSART
86.1796RIJMENANS Laurent37BELLES PÈRES CACOCHYMES2:20:018:12 7.33514ROSSEIGNIES
87.1797GILSON Nicolas37BELLES PÈRES CACOCHYMES2:20:058:12 7.33515SART DAMES AVELINES
88.1795VERWILGHEN Sebastien38BELLES PÈRES CACOCHYMES2:20:068:12 7.32516BRUXELLES
89.106VAN RAVESTYN Douglas38BELRJC MONS2:20:128:12 7.32519HYON
90.2925MICHEZ Laurent39BEL2:20:138:12 7.32521PERUWELZ
91.2729COLIN David39BELQUARANTE2:20:438:14 7.29525BONSECOURS
92.1798MALI Pierre-Antoine37BELLES PÈRES CACOCHYMES2:21:018:15 7.28527BRUXELLES
93.2157MICHELOT Xavier39FRASHAPE SCUBA2:22:118:19 7.22544MAISIERES
94.1767GOSEPATH Gregor38DEU2:22:118:19 7.22545NIMY
95.3217CAUCHIE Alain36BEL2:24:128:26 7.12586SAINT-SAUVEUR
96.2830JACOB Benoît35BEL2:24:398:28 7.09598HAVRÉ
97.1474HODENT David38FRALES BUVEUX DE TROLLS2:25:108:30 7.07606WINGLES
98.1473DELRUE Cedric36FRALES BUVEUX DE TROLLS2:25:108:30 7.07607WINGLES
99.2632BROOTCORNE Benjamin36BEL2:25:278:31 7.05611HANTES WIHÉRIES
100.2631COPPEE Bruno36BEL2:25:308:31 7.05613THUILLIES
101.659CARION Geoffrey38BEL2:25:358:31 7.05614EUGIES
102.618THONET Bertrand35BEL2:26:028:33 7.03619BOIS D'HAINE
103.2114LONGUEVILLE Frank35BEL2:26:298:34 7.00621SOYE
104.913WILCOX Jonathan38BELFIRE BIKERS2:26:408:35 7.00623HANNUT
105.2058BALASSE Alexandre35BELLES GAIS LOUPS RONDS2:26:488:36 6.99625SAINT-VAAST
106.3015MIGUEL Jean-Sébastien36BELSCSC2:26:518:36 6.99626PERWEZ
107.1966TOUSSAINT Matthieu35BEL2:27:018:36 6.98629HÉRINNES
108.3261HELIN Olivier35BEL2:27:228:38 6.96630UCCLE
109.3339HAZARD Geoffrey38BEL2:27:328:38 6.96634MESVIN
110.3260PIRROTTE Sebastien35BEL2:27:408:39 6.95637UCCLE
111.3259DECROX Denis35BEL2:27:418:39 6.95638UCCLE
112.751BONROY Philippe38BELTROLLS X'TREM RUN2:27:458:39 6.94639
113.2034DELBECQ Geoffrey38BEL2:27:568:40 6.94641PERUWELZ
114.1239DELCOURT Hugues39BEL2:28:058:40 6.93643PARIS
115.85CAMPENER Sebastien35BELKTEAM2:29:268:45 6.87667BLÉHARIES
116.1722HARRAY Patrice37BEL2:29:308:45 6.86673HAMOIR
117.1287DELANNOY Sébastien35FRA2:30:328:49 6.82691TEMPLEUVE
118.1058DEVLOO François38FRA2:30:488:50 6.80695ROUVIGNIES
119.1060DEBAISIEUX Mathieu37BEL2:30:498:50 6.80697RONGY
120.2882CHALUPA Nicolas38BEL2:30:498:50 6.80698HORNU
121.1295VAN BROECK Geoffroy38BEL2:31:138:51 6.79713GENECH
122.779BRUNI Benoit35BEL2:31:278:52 6.77721ANDENNE
123.1263DEGRAEVE Denis35FRA2:32:068:54 6.75732ESQUELBECQ
124.583RUSSO Michele39ITA2:32:158:55 6.74739ASQUILLIES
125.2482DE VOS Selma37BEL2:32:218:55 6.74742HUY
126.897SIEUW Jean-François35BEL2:33:228:59 6.69777
127.2687BASSELIER Charles37BEL2:33:238:59 6.69779VELLEREILLE-LES-BRAYEUX
128.1388PLATTEEUW Pierre36BEL2:33:338:59 6.68783LEUZE-EN-HAINAUT
129.3025ALAIMO Fabrizio39BEL2:33:519:00 6.67788HOUDENG AIMERIES
130.2446LAVENS Jean-François36BEL2:34:119:01 6.66794DOTTIGNIES
131.3596GOEMAES Nicolas36FRA2:34:259:02 6.64801SAINT SAULVE
132.817LANGLOIS Marc-André38FRA2:34:379:03 6.64804TOURCOING
133.299DELSANNE Ganguy37BEL2:34:429:03 6.63807
134.267DUFROMONT Berenger39BEL2:34:519:04 6.63810MONS
135.3517BOURGUIGNON Fabien38BELLES PETITS CHAPERONS BOUG2:34:529:04 6.63812HARCHIES
136.2000VANWAESBERGHE Rodolphe36BELRACLETTE CHEZ LES BOURGUE2:35:159:05 6.61820HAULCHIN
137.1122FLAMME Vincent35BEL2:35:289:06 6.60823BASÈCLES
138.433TILTE Fabien38BEL2:35:359:06 6.59826BINCHE
139.473MAES Antonin36BELTROLLS X'TREM RUN2:36:019:08 6.58831
140.2017BERGAMO Olivier35BEL2:36:029:08 6.58833FONTAINE L'EVEQUE
141.1712KOKIBALI Jean-Richard37BELI5D505TEH2:37:219:13 6.52859HELLEBECQ
142.1713PLUQUET Steve39BELI5D505TEH2:37:299:13 6.52862MOUSCRON
143.1154GOULMY Sébastien39FRA2:37:319:13 6.51864PARIS
144.1605SCHYNS Thomas35BEL2:37:389:14 6.51865GRÂCE-HOLLOGNE
145.3350FALASCA Massimo37BEL2:37:529:14 6.50869SPIENNE
146.728HALLEZ Thomas37BELTROLLS X'TREM RUN2:37:559:15 6.50871
147.731VAN TRIMPONT Jocelyn37BELTROLLS X'TREM RUN2:37:569:15 6.50875
148.2506DELCOURTE Steve39BEL?2:38:069:15 6.49879PERUWELZ
149.3376CAPITANINI Marco38BEL2:38:379:17 6.47885QUEVAUCAMPS
150.2160DUMONT Nicolas35FRASHOWER OF WANKER2:38:559:18 6.46888VIEUX-CONDÉ
151.2289HOUDART Matthieu35BELPREMIERFIRST2:39:009:18 6.45889ARBRE
152.1145BURLET Christian35BELLES DUDES2:39:029:18 6.45892NAMUR
153.956DAMANET Steve36BEL2:39:209:20 6.44894THUMAIDE
154.874DELMOTTE Johan38BEL2:39:279:20 6.43900DOUR
155.875DUBOIS Cedric36BEL2:39:289:20 6.43901HALLE
156.878DELCROIX Michael35BEL2:39:299:20 6.43902BOUSSU
157.1624HAVELANGE Christophe35BELCAROLO'S FIVE2:40:179:23 6.40907PRESLES
158.1625COUTURIAUX Mike35BELCAROLO'S FIVE2:40:179:23 6.40910GOSSELIES
159.1451DESCHUYTENEER Frederic35BEL2:40:409:24 6.39917BRAINE LE COMTE
160.1715CHOMIK Laurent36BELI5D505TEH2:41:139:26 6.36930PERUWELZ
161.1309ABRAHAM Steve36BEL2:42:159:30 6.32944PIPAIX
162.2353DELSARTE Arnaud36FRAJOWA2:42:169:30 6.32945LA SENTINELLE
163.3539TEILLIEZ Xavier35FRA2:42:179:30 6.32946PRESEAU
164.977VANDENBULCKE Pierre37BEL2:42:199:30 6.32950AVELGEM
165.2156MURDOCK Aiden39CANSHAPE SCUBA2:42:559:32 6.30956MAISIERES
166.1866BRISMEE Sebastien37BEL2:42:589:32 6.30958RUMILLIES
167.710TAS Jean-Yves35BEL2:43:209:34 6.28967CARNIÈRES
168.2508SERVRANCKX Damien35BEL?2:43:499:35 6.26981SAINTES
169.2558CLAUS Cedric37BEL2:44:019:36 6.26985HAVRÉ
170.1582BOUTOILLE Pierre39FRA2:44:049:36 6.25986PREURES
171.1382HOTAUX Hugues37BEL2:44:109:37 6.25989SILLY
172.1066DESCAMPS Nicolas35BEL2:44:169:37 6.25992TOURNAI
173.3022CELESTRI Jonathan35BEL2:44:209:37 6.24999FRAMERIES
174.1067VILAIN Guillaume35BEL2:44:249:37 6.241003WIERS
175.3324PETITJEAN Michael38BEL2:44:299:38 6.241006BRUXELLES
176.1517CHERUBIN Franck36FRA2:44:329:38 6.241009WARLAING
177.1512DEBERSEE Arnaud39FRA2:44:329:38 6.241010WARLAING
178.2199GILGEAN Benjamin36BEL2:45:039:40 6.221019WIHERIES
179.2277ULWELING Denis36BEL2:45:139:40 6.211022HÉVILLERS
180.2278ZORZA Laurent35BEL2:45:139:40 6.211023NIVELLES
181.2279SCAUT Nicolas35BEL2:45:159:40 6.211025ERNAGE
182.1268VISÉE Romuald35FRA2:45:389:42 6.191032LOURCHES
183.1963HENRIST Arnaud39BEL2:45:459:42 6.191033WAUDREZ
184.1169DUQUESNE Jean Luc35BEL2:45:529:42 6.191035STAMBRUGES
185.1425TOURNEUR Bertrand36BEL2:45:589:43 6.181039AUVELAIS
186.1426COMANDINI Gregory35BEL2:45:589:43 6.181040AUVELAIS
187.2469DEMOTTE Gilles36BEL2:46:029:43 6.181041JEMAPPES
188.3276RODRIGUE Daniel37BEL2:46:139:44 6.171043MAFFLE
189.2015MONFORT Michael36BEL2:46:209:44 6.171044HUISSIGNIES
190.3161LAGRENET Mike37BEL2:47:129:47 6.141054CHERATTE
191.2932FALEMPIN Jonathan35BELEVERYONE2:47:449:49 6.121066LEUZE
192.1196GOOSSENS Marc39BEL2:47:489:49 6.111068GRANDGLISE
193.1195CAULIER Sébastien37BEL2:47:499:49 6.111069QUIÉVRAIN
194.362ESSOUIDI Abdelah39BEL2:47:499:49 6.111070EVERE
195.787SOLIER Benjamin36FRA2:49:149:54 6.061105MAREUIL SUR OURCQ
196.2252NATICCHI Fabien37BELLES DRAGONS2:50:029:57 6.031120LEVAL
197.1833BREVERS Didier36BEL2:50:059:57 6.031121ATH
198.1224QUERSON Frédéric37BEL2:50:099:57 6.031125HAUTRAGE
199.1765DE SMET Stephane36BEL2:50:239:58 6.021137QUEVAUCAMPS
200.1882BLONDEAU Julien35FRA2:50:239:58 6.021138BOISSY FRESNOY
201.1883ROLLET Michael39FRA2:50:299:59 6.021143AUGER SAINT VINCENT
202.1836STRENS Guillaume38BEL2BEST4YOU2:50:349:59 6.021144MONS
203.1467LIBERT Eric35BEL2:50:369:59 6.011146AUVELAIS
204.1465BOLLEN Johan39BEL2:50:379:59 6.011150LANEFFE
205.983DUVIVIER Abraham36BELTROLLS X'TREM RUN2:50:389:59 6.011151
206.2684KOEUNE Xavier35BEL2:50:419:59 6.011155THOREMBAIS LES BÉGUINNES
207.2683WATERKEYN Francois35BEL2:50:429:59 6.011157ECAUSSINNES
208.1608THONON Louis35BEL2:51:1910:02 5.991169LOUVAIN LA NEUVE
209.2697BROUCKAERT Vincent38BELLES JOYEUX LURONS2:52:2910:06 5.951184DOUR
210.2621DELCOURT Sebastien38BEL2:52:3110:06 5.951185WIERS
211.2086COTTRET Eddy36FRA2:53:0310:08 5.931196DON
212.3525REGHEM Jean Michel38BELLES PETITS CHAPERONS BOUG2:53:0510:08 5.931197THULIN
213.2364DE HAES Roland39BELKC-TEAM2:53:0610:08 5.931198LEUVEN
214.2365GEYSKENS Hans39BELKC-TEAM2:53:0710:08 5.931199SCHERPENHEUVEL
215.2362VERMAELEN Johan39BELKC-TEAM2:53:0910:08 5.931202HOLSBEEK
216.2251BAIX Benjamin35BELLES DRAGONS2:53:1110:08 5.921205BINCHE
217.1999PLUS Olivier38FRA2:53:1610:08 5.921209VENDIN LE VIEIL
218.2249DRAMAIX Frederic36BELLES DRAGONS2:53:1610:08 5.921210HERCHIES
219.1997CARPENTIER Mickael38FRA2:53:1610:08 5.921211CALAIS
220.506MAISSIN Nicolas39BELTROLLS X'TREM RUN2:53:2910:09 5.911221
221.2622MARGHEM Damien36BEL2:53:4510:10 5.911224BLATON
222.2020VAN RILLAER Pascal39BEL2:53:5010:10 5.901225HAM SUR HEURE
223.993CAPIAUX Benoît35BELTROLLS X'TREM RUN2:53:5310:11 5.901226
224.1385COLINET Arnold36BEL2:54:0610:11 5.891233CHIEVRES
225.2690LEGAT Frédéric35BEL2:54:5010:14 5.871240LUTTRE
226.2292PRESEAU Christophe35FRA2:55:1010:15 5.861249RAISMES
227.2021NICOLAS Ludovic39BEL2:56:4310:21 5.811266BAUDOUR
228.2627SPAGNA Paul38BEL2:57:5810:25 5.771281HERCHIES
229.2119BONDROIT Frédéric35BEL2:58:4910:28 5.741303GAURAIN
230.208BOUTRIAUX Michaël37BELTROLLS X'TREM RUN2:58:5310:28 5.741308
231.70PEETERS Thomas35BELTROLLS X'TREM RUN2:58:5610:28 5.731310
232.3432DUMONT Sebastien36BELLES FRÈRES2:59:5210:32 5.701313GIBECQ
233.929VERSET Thomas36BELLES KAMIKAZES3:00:1510:33 5.691325HUISSIGNIES
234.1720WELTER Patrice38BEL3:00:5110:35 5.671337MARCHE EN FAMENNE
235.1721SIMON Andre37BEL3:00:5210:35 5.671339PLOMBIERES
236.503LEDANT Bruno38BEL3:00:5410:35 5.671342ORP LE GRAND
237.1447DARIMONT Pierre37BELA-TEAM3:00:5910:35 5.671348MONS
238.2872MISME Charly35BELULTIMATESPORT OFFROAD3:02:1810:40 5.631380PÉRUWELZ
239.2048LIEVENS David36BELGT TEAM3:02:2510:41 5.621383TERTRE
240.1472NGUYEN Michel35FRA3:02:3510:41 5.621388JOINVILLE LE PONT
241.258GUEREZ Gregory39BEL3:02:5910:43 5.611393THOREMBAIS LES BEGUINES
242.257VERMEIRE Stéphane38BEL3:02:5910:43 5.611394HÉVILLERS
243.2967BOVINO Mikael36BEL3:03:3010:44 5.591406CHATELET
244.3374LEBRUN Eric38FRA3:03:3310:45 5.591407FROYENNES
245.3375DHALLEWYN Jerome39FRA3:03:3310:45 5.591408BECLERS
246.2764VANTHOURNOUT Vandetutt37BELLES FOUS DU STADE - RETUR3:03:4110:45 5.591412QUEVAUCAMPS
247.384MASCARELLO Christophe37BELMECA TROLLS3:03:4810:45 5.581413CHENÉE
248.1733QUINET Pascal37BEL3:05:0010:50 5.551427CHATELET
249.621ROSE Nicolas39BELRUN AND BIKE DES COLLINES3:05:0210:50 5.551431SAINT-SAUVEUR
250.1498DAUCHOT Cedric36BELLES MONTAGNARDS3:05:0810:50 5.541436GOZEE
251.2351DEJARDIN Benoit38FRAJOWA3:05:2910:51 5.531444HERIN
252.2016LION David35BEL3:05:3910:52 5.531452PERUWELZ
253.821COPIN Sebastian37BEL3:05:5810:53 5.521460BAULERS
254.2526HOUDART Pierre37BEL3:06:1110:54 5.511468LABUISSIÉRE
255.1577SEGARD Vincent36BEL3:06:1210:54 5.511470GRANDGLISE
256.1794ROLAND Fabrice35BEL3:06:5510:56 5.491484JAMBES
257.970LIMBOURG Nicolas35BEL3:06:5710:56 5.491485NEUFVILLES
258.2498GRARD Ulrich35BEL3:06:5810:57 5.491487CHIÈVRES
259.1128PREVOST Julien38BEL3:07:0910:57 5.481490MONTIGNIES-SUR-SAMBRE
260.809DOYEN Stéphane36BEL3:07:5411:00 5.461498BÉCLERS
261.2274CATALAN PINTO Jaime37BEL3:08:2611:02 5.451503MONS
262.2275CATALAN PÏNTO Ariel35BEL3:08:2611:02 5.451504MONCEAU SUR SAMBRE
263.798VERGALLO Michael39BELLES JULES3:08:5911:04 5.431513FONTAINE L'EVEQUE
264.802INGRASCI Vincent35BELLES JULES3:08:5911:04 5.431514COURCELLES
265.1935WAUTERS Gregory35BELLES AL'TROLL'IQUES3:09:1711:05 5.421521FERNELMONT
266.1927BARBIER Fabrice37BELLES AL'TROLL'IQUES3:09:2011:05 5.421527CORROY-LE-CHATEAU
267.3293DELBECQ Michael36BEL3:09:4111:06 5.411545TEMPLEUVE
268.3066STIENNES Arnaud39BEL3:09:4211:06 5.411551GAURAIN RAMECROIX
269.2638BAERS Bertrand38BELTROLLSWAAG3:09:5211:07 5.401560FLAWINNE
270.860DELPATURE Frederic39BEL3:09:5911:07 5.401567TAISNIERES SUR HON
271.3512TAZIAUX Daniel38BELLES NULS3:10:2511:09 5.391574MARCINELLE
272.225GORTS-HORLAY Pierre-Emmanuel37BEL3:10:2611:09 5.391575DEUX-ACREN
273.2803DELCHAMBRE Yannick36BEL3:10:2911:09 5.391578DOTTIGNIES
274.3243DE WEIRELD Pierre35BELLES FOUS DU VOLANT3:10:4111:10 5.381586BELOEIL
275.2457VANELSLANDE Jerome35FRACH'TI DEGLINGOS3:11:0311:11 5.371604COMINES
276.3585COUSIN Henri37FRALES TROLLS AKLASS3:12:1011:15 5.341630ROUBAIX
277.865VANLAUTEM Olivier39BEL3:12:5711:18 5.321638MONS
278.1851AGUILERA-AGUILERA Philippe36BEL3:13:3711:20 5.301654FOSSES-LA-VILLE
279.822MENGEOT Christophe35BEL3:13:4311:20 5.301659GOUGNIES
280.62VAST Laurent38BEL3:13:4511:20 5.301662SAINT-SAUVEUR
281.589VERPLANCKEN Sebastien36BEL3:13:5611:21 5.291673
282.105LAVENNE Arnaud39BELRJC MONS3:14:3111:23 5.271681HYON
283.1050CAMBIER Laurent39BEL3:14:3811:23 5.271688GRANDGLISE
284.1304LAURENT Sebastien39BEL3:15:0011:25 5.261697WILLAUPUIS
285.1298LECOMTE Ludovic37BEL3:15:3011:26 5.251711GRANDMETZ
286.2046URBAIN Cédric37BELGT TEAM3:15:3111:26 5.251713HAVRÉ
287.1479LEBLON Julien36BELLES MONTAGNARDS3:15:4311:27 5.241723GOZEE
288.2749DENEUBOURG Gregory35BELQUARANTE3:15:4711:27 5.241728TOURNAI
289.1490OUAZZANI Aous36MARLES MONTAGNARDS3:15:4811:27 5.241729GOZEE
290.2654SKRZYPEZAK Nicolas36FRATTSIN3:16:1411:29 5.231738SIN LE NOBLE
291.3351GONSETTE Jean-Sébastien35BEL3:16:1811:29 5.231741LA BOUVERIE
292.1941LEVEQUE Patrick36BELLES AL'TROLL'IQUES 23:18:0111:35 5.181772ECAUSSINNES
293.2357MICHEL Christophe39FRAJOWA3:18:1111:36 5.181777LA SENTINELLE
294.3631LEEMANS David35BELPOMPIERS 443:18:1211:36 5.181778DROGENBOS
295.3632BATSELIER David39BELPOMPIERS 443:18:1211:36 5.181779ONKERZELE
296.3633MOUS Christophe35BELPOMPIERS 443:18:1311:36 5.181780SCHEPDAAL
297.3636DOMINGEZ Olivier37BELPOMPIERS 443:18:1411:36 5.181787JETTE
298.1488DUEZ Gregory36BELLES MONTAGNARDS3:18:2211:36 5.171791GOZEE
299.2839JANSSEN Christophe35BELXTREM POWER TEAM3:18:3411:37 5.171795BRAINE LE COMTE
300.419BIEVELEZ Martin37BELMADRES3:18:4111:38 5.161802THULIN
301.2443FOUGNIES Jean Francois37BEL3:18:4311:38 5.161807PÉRUWELZ
302.92KONARSKI Lionel36BELLES FLEMMARS3:18:5011:38 5.161813ST-GHISLAIN
303.1374FRISON Tom35BEL3:19:0311:39 5.151815MESLIN L'EVEQUE
304.2291TERRYN Sylvain36BELPREMIERFIRST3:19:3311:41 5.141837MOUSCRON
305.2288BUTAYE Steve37BELPREMIERFIRST3:19:3411:41 5.141838PLOEGSTEERT
306.2287KINO Johan36BELPREMIERFIRST3:19:3411:41 5.141839ESTAIMPUIS
307.1153DEHAESE Laurent36FRA3:20:0911:43 5.131848ST POL SUR MER
308.2327CARON Julien38BEL3:20:1111:43 5.131851PETIT ROEULX
309.1152DEHAESE Vincent39FRA3:20:1211:43 5.131854DUNKERQUE
310.811GUILLAUME Laurent37BEL3:21:0911:46 5.101873BARRY
311.705HERRYGERS David37BEL3:21:1111:46 5.101874MONS
312.439BOUCHEZ Yannick36BELTROLLS X'TREM RUN3:21:2511:47 5.091876
313.1127BURY Jean-François35BEL3:21:4211:48 5.091888LOBBES
314.2346CANON Jean-Francois39BEL3:22:1611:50 5.071897CHASTRE-VILLEROUX-BLANMON
315.1353CAPDIVILA Gilles37FRARCNT AVIRON3:22:4711:52 5.061906REBAIX
316.3008ANDRE Benoît36BELSCSC3:22:4911:52 5.061909GOUY-LEZ-PIETON
317.2238FAGNOT Fabien35BELLES DRAGONS3:22:5011:52 5.061914MONS
318.1547DEPLUS Stéphane36BEL3:22:5111:52 5.061915WIERS
319.193DEPLUS Cédric38BELTROLLS X'TREM RUN3:22:5211:52 5.061916
320.2653ROUSSEAU Fabien35FRATTSIN3:23:1511:54 5.051921SIN LE NOBLE
321.2651LESTIENNES Jerome39FRATTSIN3:23:1511:54 5.051922SIN LE NOBLE
322.1342DUMORTIER Michaël35BELRCNT AVIRON3:23:3611:55 5.041939BLÉHARIES
323.1358URBAIN Jonathan35BELRCNT AVIRON3:23:4111:55 5.041942LESDAIN
324.891CHARLIER Nicolas36FRA3:25:2312:01 5.001973FERRIERE
325.3206LHOIR Laurent37BELLES ESTROPIES3:25:2912:01 4.991974BELOEIL
326.2815LOGNARD Michaël35BELYAPALEFEU3:26:0212:03 4.981986LIMBOURG
327.2816SEVRIN Michaël37BELYAPALEFEU3:26:0212:03 4.981987WEGNEZ
328.2808DUCHESNE Lionel38BELYAPALEFEU3:26:0312:03 4.981989SPA
329.2817KEUTIENS Yves35BELYAPALEFEU3:26:0512:04 4.981997HEUSY
330.776MOTTET Johan38BEL3:26:3612:05 4.972009HALTINNE
331.1273LEHANCE Dominique38BEL3:27:0412:07 4.962030BATTICE
332.1543FRANKEN Eric39BEL3:27:0812:07 4.952033BOLLAND
333.1562SAIGOT Denis38BEL3:27:0912:07 4.952035GENLY
334.1563STASSART Xavier36BEL3:27:1012:07 4.952038GENLY
335.1124HALIPRE Cedric38FRA3:27:5112:10 4.942047ANNOEULLIN
336.3507VAN CALSTER Gerald35BELLES NULS3:27:5312:10 4.942048AULNOIS
337.2339BOIS Pierre-Henri36BEL3:28:1912:11 4.932058BLANDAIN
338.2341BERTON David39BEL3:28:2012:11 4.932059WARCOING
339.3626WALASIAK Steve37BEL3:29:2712:15 4.902070STAMBRUGES
340.3317DE ROO Dominique36BELLA TROUPE DE SECOURS3:30:0012:17 4.892077MOUSCRON
341.708DUYM Jean-Louis36BEL3:30:4412:20 4.872092JAMBES
342.3310DEVIN Olivier38BELLA J M3:30:5012:20 4.872096LANEFFE
343.3138PIRAS David35BEL3:30:5112:20 4.872097FLEMALE
344.3297MORES Patrice39BELLA J M3:30:5312:20 4.872098LANEFFE
345.1595FRANÇOIS Christophe39BEL3:30:5912:21 4.862103TOURNAI
346.3298COLLE Stéphane37BELLA J M3:31:1012:21 4.862104LANEFFE
347.3201LOUVIAU Nicolas38BELLES ESTROPIES3:31:1312:22 4.862105IRCHONWELZ
348.2792TOULLEC Éric35FRA3:32:1712:25 4.832119LILLE
349.2793BASTIN David38BEL3:32:2012:25 4.832121TOURNAI
350.1557BIHAIN Patrice37BEL3:32:2012:25 4.832122SOUMAGNE
351.699HEYMANS Olivier39BEL3:32:3612:26 4.832129MONS
352.3421GRAINDORGE Fabrice37BEL3:32:4112:27 4.822131NIVELLES
353.2906BERTELS Christophe38BEL3:33:2512:29 4.812137PETIT-THIER
354.1890GALLOU Elie37FRA3:34:0912:32 4.792143BOISSY-FRESNOY
355.3537TEILLIEZ Julien37FRA3:34:3312:33 4.782155ROMBIES ET MARCHIPONT
356.1542BAECK Benjamin39BEL3:34:5312:34 4.772164BRAINE-LE-COMTE
357.2167HAVET Florian36FRASHOWER OF WANKER3:35:3012:37 4.762187VIEUX-CONDÉ
358.2168STETTMEIER Guillaume35FRASHOWER OF WANKER3:35:3012:37 4.7621881
359.1283BLOMME Aymeric37FRA3:35:5812:38 4.752199COMINES
360.1296FLORIO David39FRA3:35:5912:38 4.752200LAMBERSART
361.3305PAUWELS Christophe37BELLA J M3:36:0712:39 4.752209GOZÉE
362.1970CLAERBOUT Quentin35BEL3:36:2612:40 4.742212NIVELLES
363.1085HANNEUSE Gregory38BEL3:37:0912:42 4.732227ZAVENTEM
364.1659HUART Jean-Florent38BEL3:38:1312:46 4.702243EUGIES
365.1585VAN LEENDERT Ludovic36BEL3:38:3312:47 4.692248POPUELLES
366.152PIERART Gontran37BELTROLLS X'TREM RUN3:38:4012:48 4.692249
367.151PLATTEAU Xavier39BELTROLLS X'TREM RUN3:38:4112:48 4.692250
368.3288HENRY Pascal36BEL3:39:5812:52 4.662261TAINTIGNIES
369.3119WILLEMS Gilles35FRA3:40:5112:55 4.652275BRILLON
370.2110LOKOLE Jody36BEL3:41:0112:56 4.642280MONS
371.499SCULIER Claudy37BELTROLLS X'TREM RUN3:41:1212:57 4.642288LENS
372.498PARMENTIER Thierry37BELTROLLS X'TREM RUN3:41:1412:57 4.642296MONTIGNIEZ-LEZ-LENS
373.2562ROUNEAU Patrik35BEL3:41:1412:57 4.642298BOUSSU
374.3489NAESSENS Rudi39BEL3:41:3912:58 4.632302MOUSCRON
375.3273PAK Frédéric39BEL3:43:3413:05 4.592330WASMUEL
376.1149BAUDUIN Benjamin36BEL3:43:4713:06 4.582333JUNGLINSTER
377.3607FONSECA Jean-Paul37BELMOUS-TROLL-NOIS3:43:4913:06 4.582338LUINGNE
378.1011MAKHLOUK Ismaïl39BELTROLLS X'TREM RUN3:44:3713:09 4.572357
379.2666GUSTIN David36BEL3:45:4613:13 4.542376ELLEZELLES
380.3600DERENTY Kevin35BEL3:46:1613:14 4.532386MONS
381.3389DEHAM Mathieu35BELLES BRONZES3:46:4013:16 4.532390WARQUIGNIES
382.3396BLONDIEAU Laurent38BELLES BRONZES3:46:4113:16 4.532392POMMEROEUL
383.1967DUVINAGE Francois36BEL3:47:0013:17 4.522399ARC-WATTRIPONT
384.697LOMBAERT Jf35BEL3:47:0813:17 4.522401MONS
385.1634EL BOUSSATI Khalid39BELLES N'HULKS3:48:2713:22 4.492437NIMY
386.856JARZYNKA Nicolas38FRA3:48:2913:22 4.492440RANG DU FLIERS
387.855GRAVE Mickael36FRA3:48:3313:22 4.492444RANG DU FLIERS
388.2940ERGO Nicolas38BELEVERYONE3:48:4413:23 4.492453RUMILLIES
389.3077GRAY Stephen38BELTHE FUCKING BLUE TROLLS3:49:3013:26 4.472461JENEFFE
390.3483ROYER Michael38BEL3:50:4713:30 4.452474ELLIGNIES-SAINTE-ANNE
391.3467D'HONDT Christophe35BELLES LOUSTICS3:50:5613:31 4.442480THIEULAIN
392.1251WARGNIES Cedric35BEL3:51:0113:31 4.442484MAUBRAY
393.842VALEMBOIS Olivier36FRA3:51:1913:32 4.442489VERTON
394.3506VAN CALSTER Fabian36BELLES NULS3:51:2913:33 4.432498QUEVY
395.1692HAESENNE Thierry37BELDEAF POWER3:53:0913:39 4.402533SAINT-NICOLAS
396.2791GOVAERE Frédéric36FRA3:53:3713:40 4.392547WORMHOUT
397.2615GERARD Etienne35BEL3:54:1813:43 4.382552BORLEZ
398.2290BLONDEAU Johan39BELPREMIERFIRST3:55:2413:46 4.362567ERCHIN
399.1937CAPIAU Cédric37BELLES AL'TROLL'IQUES3:56:1713:50 4.342588GUSSIGNIES
400.576POTOCHEKO Jeremy39FRA3:56:5913:52 4.332602WATTRELOS
401.2328BARTHA Arnaud38BEL3:58:4113:58 4.302644CHAPELLE
402.115PALLEN Samuel38BELRJC MONS3:58:4613:58 4.302651HYON
403.1774CLOËREC Lionel36BEL4:01:0014:06 4.262674TOURNAI
404.103DUPUIS Geoffrey39BELRJC MONS4:01:1714:07 4.252678HYON
405.3058FERRARA Arcangelo37ITA4:01:2314:07 4.252680PERUWELZ
406.3309BELKAID Yassir36BELLA J M4:02:5314:13 4.222706CHÂTELET
407.1514POISSONNIER Kevin37FRA4:02:5314:13 4.222707MARQ-EN-BAROEUL
408.1513MAHIEU Jean-Francois37FRA4:02:5414:13 4.222710MONCHECOURT
409.2146DEPRE Nicolas36FRA4:03:3614:15 4.212715MARESQUEL
410.2583WAWRZYNIAK Stany37BELLEFFES DU MORDOR4:03:5514:16 4.212726MONS
411.1427LAVERSIN Samuel35FRA4:06:0914:24 4.172748MERVILLE
412.1916LIBERT Geoffrey35BELLES AL'TROLL'IQUES4:06:4314:26 4.162762QUAREGNON
413.1917BRUYNINCKX Pierre37BELLES AL'TROLL'IQUES4:06:4414:26 4.162764NIMY
414.1942GIORDANO David36BELLES AL'TROLL'IQUES 24:06:4514:26 4.162766ELESMES
415.1908FODDIS Rino38BELLES AL'TROLL'IQUES4:06:4614:26 4.162769JEMAPPES
416.2180COULOMBEL Baptiste35FRA4:08:2714:32 4.132793LANDRETHUN LES ARDRES
417.1100SEGERS Dominique38FRA4:09:2114:35 4.112819COMINES
418.2786ESQUENET Rambo 239BELLES FOUS DU STADE - RETUR4:10:1914:39 4.102836QUEVAUCAMPS
419.2403NOËL Pierre39BELLES PUBLIVORES4:10:4214:40 4.092846POMMEROEUL
420.2490LIEVIEN Laurent38FRA4:11:2114:42 4.082848TOURNAI
421.510COUVREUR Johan35BEL4:12:0114:45 4.072858HUISSIGNIES
422.2746DEWEER Dominique35BELQUARANTE4:14:0714:52 4.042896PERUWELZ
423.2700ARRIGO Fabrice37BELLES JOYEUX LURONS4:14:1114:52 4.042903ANDERLUES
424.2736HOMERIN Frédéric38BELQUARANTE4:14:1114:52 4.042904QUEVEAUCAMPS
425.737DUQUESNE Donatien38FRA4:15:0314:55 4.022918ARMENTIÈRES
426.893LEFEBVRE Benoit36FRA4:15:0514:56 4.022919TOURCOING
427.633COLPAERT Alexandre38FRA4:15:0614:56 4.022921ARMENTIÈRES
428.3090NOSSIN Yves38BELTHE FUCKING BLUE TROLLS4:18:1815:07 3.972934WAREMME
429.2787MORIAME Bézu39BELLES FOUS DU STADE - RETUR4:20:0215:13 3.952950QUEVAUCAMPS
430.2777MAZZEO Fonzie Longs Cheveux35BELLES FOUS DU STADE - RETUR4:20:0415:13 3.952953QUEVAUCAMPS
431.2768ROUSSEAU El Rousse37BELLES FOUS DU STADE - RETUR4:20:0715:13 3.942957QUEVAUCAMPS
432.2783HERZET Suppo36BELLES FOUS DU STADE - RETUR4:20:0715:13 3.942959QUEVAUCAMPS
433.2773MARIAGE Coeur37BELLES FOUS DU STADE - RETUR4:20:0815:13 3.942960QUEVAUCAMPS
434.792LA PENNA Jc Dus39BELLES FOUS DU STADE - RETUR4:20:1015:13 3.942964QUEVAUCAMPS
435.323KELDERMANS Emmanuel36BEL4:20:3515:15 3.942976ISIÈRES
436.2355DUPRIEZ Alexandre36FRAJOWA4:21:1415:17 3.932979LA SENTINELLE
437.2352DELBECQ Eddy39FRAJOWA4:21:1615:17 3.932981LA SENTINELLE
438.2348HUREZ Frederic35FRAJOWA4:21:1915:17 3.932982LA SENTINELLE
439.3154HENRARD Frederic38BEL4:22:5915:23 3.902994ROUCOURT
440.3158DELVAUX Jean Francois39BEL4:23:0015:23 3.902996AMAY
441.1959ROBERT Cédric36BEL4:26:1415:35 3.853039WIHÉRIES
442.2503HLUSEK Joffrey38BEL4:29:5315:47 3.803048BELOEIL
443.3444DE RYCK Laurent35BEL4:31:1515:52 3.783056SAINT-NICOLAS
444.2359DURIEUX Sylvain36FRAJOWA4:34:0616:02 3.743095LA SENTINELLE
445.1163DUPRET Nicolas35FRA4:36:0716:09 3.723098HELESMES
446.1461JAYE Marc39BEL4:36:3816:11 3.713108HORNU
447.2265MESTDAGH David36BEL4:37:1316:13 3.7031107730
448.1699DRUBAY Cedric36FRA4:39:5516:23 3.673112VIESLY
449.2078PERUS Nicolas35FRA4:39:5616:23 3.673118LIEZ
450.837DEDELOT Jérémy39FRA4:59:5317:33 3.423143AIRON NOTRE DAME
451.1874GOISET Sylvain36BELLES ÉCLECTIQUES5:02:5317:43 3.393144LODELINSART
452.3255BOURLARD David36BEL5:17:2118:34 3.233146BURY
453.3111SAISON Matthieu36FRA6:05:3021:23 2.813151VALENCIENNES
454.18DETEMMERMAN Jody35BEL6:36:4223:12 2.593154JEMAPPES
DNF16BOTTE Vincent38BELGROOT BIJGAARDEN
DNF424DUQUENNE Thomas39BELMADRESBRUXELLES
DNF3129MAISSIN Hervé36BELTROLLS AKLASSSORINNE LA LONGUE
DNF230SAUTELET Dominique35BELBLATON
DNF1360WILLIAME Benoit38BELRCNT AVIRONBLÉHARIES
DNF3616WILLIAUME William39BELPASTA COSIEUGIES
DNF: did not finish; DSQ: disqualified; Speed in km/h
Page: [1]